Location: *
(52.6886°N, 62.5894°E)
Time: 20:39:28
(UTC+00:00)

Daily predictions for brighter satellites

Satellite Brightness Start Highest point End
(mag) Time Altitude Azimuth Time Altitude Azimuth Time Altitude Azimuth
Cosmos 2227 Rocket 4.4 13:15:00 10° WNW 13:18:20 16° NNW 13:21:40 10° NNE
Unknown 3.8 13:14:42 10° WSW 13:18:48 63° SSE 13:22:54 10° ENE
BREEZE-M DEB (TANK) 3.6 13:16:38 10° W 13:20:35 69° S 13:29:19 10° ESE
Cosmos 1271 Rocket 2.8 13:17:35 10° NNW 13:21:35 89° ENE 13:25:35 10° SSE
Unknown 3.8 13:18:03 10° WSW 13:22:09 64° SSE 13:26:16 10° ENE
Cosmos 2297 Rocket 4.4 13:20:38 10° NW 13:23:44 15° NNW 13:26:50 10° NNE
Unknown 3.8 13:19:42 10° WSW 13:23:48 65° SSE 13:27:56 10° ENE
Cosmos 2082 Rocket 2.8 13:19:32 10° NNW 13:24:50 37° NE 13:30:07 10° ESE
Cosmos 2084 Rocket 4.3 13:21:00 10° NW 13:25:10 36° NNE 13:29:16 10° E
Unknown 3.8 13:21:22 10° WSW 13:25:29 66° SSE 13:29:36 10° ENE
Lacrosse 5 1.9 13:21:31 10° WNW 13:26:37 71° NNE 13:31:40 10° ESE
Unknown 3.8 13:23:01 10° WSW 13:27:08 67° SSE 13:31:16 10° ENE
Cosmos 1606 Rocket 3.5 13:23:13 10° S 13:27:33 64° E 13:31:52 10° NNE
Unknown 3.1 13:25:34 10° W 13:28:59 83° SSW 13:32:24 10° ESE
FALCON 9 DEB 3.2 13:26:47 10° W 13:30:15 87° SSW 13:33:45 10° ESE
Unknown 3.7 13:26:21 10° WSW 13:30:29 69° SSE 13:34:35 10° ENE
ATLAS CENTAUR R/B 3.6 13:28:08 10° NW 13:31:32 19° N 13:34:48 10° NE
Unknown 3.7 13:27:37 10° WSW 13:31:45 71° SSE 13:35:48 10° ENE
CSL-04 Debris 4.4 13:26:57 10° SE 13:32:13 52° ENE 13:37:33 10° N
Unknown 3.7 13:28:12 10° WSW 13:32:19 74° SSE 13:36:22 11° E
EO 1 Delta rocket 4.4 13:28:07 10° SE 13:32:24 38° ENE 13:37:08 10° N
Cosmos 1758 Rocket 4.4 13:29:09 10° NNW 13:33:33 59° W 13:37:56 10° S
Unknown 3.4 13:30:07 10° W 13:33:58 86° N 13:37:37 11° E
Unknown 3.7 13:29:51 10° WSW 13:34:00 74° SSE 13:37:59 11° E
CZ-2D R/B 4.3 13:31:00 10° ESE 13:34:13 26° ENE 13:37:27 10° N
COSMOS 2406 3.3 13:29:25 10° NNW 13:35:15 89° WSW 13:41:01 10° SSE
Unknown 3.7 13:32:58 10° WSW 13:37:06 73° SSE 13:40:58 12° E
YAOGAN 6 2.7 13:34:28 10° SSE 13:38:01 51° ENE 13:41:34 10° N
CZ-4 R/B 1.5 13:34:12 10° SSE 13:38:19 59° ENE 13:42:30 10° N
Unknown 3.6 13:35:11 10° WSW 13:39:15 83° SSE 13:42:55 12° E
Unknown 3.6 13:35:10 10° WSW 13:39:15 77° SSE 13:42:59 12° E
Gbstr 26 Del rocket 4.2 13:34:37 10° W 13:40:19 72° SSW 13:47:22 10° ESE
Unknown 3.7 13:36:17 10° WSW 13:40:26 75° SSE 13:44:09 13° E
H-2A R/B 3.9 13:36:55 10° S 13:40:43 50° W 13:44:35 10° NNW
Unknown 3.2 13:37:24 10° W 13:40:56 86° S 13:44:07 12° ESE
Cosmos 1356 3.9 13:38:35 10° SSE 13:41:47 37° E 13:45:01 10° NNE
Unknown 3.7 13:37:57 10° WSW 13:42:06 75° SSE 13:45:46 13° E
Cosmos 1844 Rocket 2.7 13:37:20 10° SSW 13:43:00 89° SE 13:48:41 10° NNE
Unknown 3.6 13:39:36 10° WSW 13:43:45 76° SSE 13:47:21 14° E
Unknown 3.6 13:41:16 10° WSW 13:45:25 77° SSE 13:48:56 14° E
Cosmos 839 Rocket 4.4 13:40:47 10° NW 13:46:57 72° SW 13:53:44 10° SSE
Unknown 3.4 13:43:23 10° W 13:47:19 86° N 13:50:30 15° E
Falcon 9 debris 3.2 13:44:12 10° W 13:47:39 75° SSW 13:50:36 14° ESE
Cosmos 1703 3.2 13:45:38 10° N 13:49:36 71° ENE 13:53:30 10° SSE
SKYMED 2 3.7 13:47:40 10° NNE 13:51:58 53° E 13:56:12 10° S
Unknown 3.6 13:47:51 10° WSW 13:52:01 80° SSE 13:55:17 16° E
Unknown 3.6 13:49:34 10° WSW 13:53:43 81° SSE 13:56:56 17° E
Abrixas rocket 4.2 13:52:06 10° S 13:53:47 14° SSE 13:54:52 12° SE
COBE Rocket 4.0 13:49:14 10° NNE 13:54:27 75° ESE 13:59:32 10° S
Unknown 3.6 13:51:11 10° WSW 13:55:21 82° SSE 13:58:30 17° E
Unknown 3.6 13:52:51 10° WSW 13:57:00 83° SSE 14:00:05 18° E
CZ-4 R/B 4.4 13:53:19 10° SSE 13:57:26 88° WSW 14:01:36 10° NNW
YAOGAN 1 2.5 13:53:27 10° SSE 13:57:46 72° ENE 14:02:06 10° N
Ariane Rocket 3.4 13:53:16 10° SE 13:58:03 42° ENE 14:02:51 10° N
Meteor 1-11 4.2 13:52:52 10° NNW 13:58:40 79° ENE 14:04:29 10° SSE
Unknown 3.6 13:54:32 10° WSW 13:58:41 83° SSE 14:01:41 18° E
FengYun 1-2 T 4.4 13:55:49 10° SSE 14:01:28 83° WSW 14:07:07 10° NNW
Meteor 1-16 Rocket 4.1 13:56:18 10° S 14:01:49 81° E 14:07:13 10° NNE
Unknown 3.6 13:57:51 10° WSW 14:02:01 85° SSE 14:04:54 19° E
Unknown 3.3 13:59:46 10° W 14:03:17 72° SSW 14:05:39 19° ESE
Cosmos 1992 Rocket 4.4 13:58:17 10° SW 14:03:29 67° WNW 14:08:43 10° NNE
Starlink (trailer) 3.6 13:59:29 10° WSW 14:03:39 85° SSE 14:06:27 20° E
Unknown 3.6 14:01:09 10° WSW 14:05:19 86° SSE 14:08:04 21° E
BREEZE M DEB (TANK) 3.5 14:03:50 10° WSW 14:05:54 27° SSW 14:09:45 10° SE
ATLAS 5 CENTAUR R/B 2.3 14:01:54 10° WSW 14:06:16 55° NW 14:11:18 10° NE
Cosmos 2228 3.5 14:02:26 10° SSW 14:06:46 64° WNW 14:11:06 10° N
Unknown 3.6 14:02:49 10° WSW 14:06:59 87° SSE 14:09:40 21° E
Cosmos 1726 Rocket 4.0 14:03:55 10° SSW 14:08:16 66° WNW 14:12:38 10° N
Cosmos 2278 Rocket 2.5 14:04:00 10° S 14:09:18 43° ESE 14:14:39 10° NE
Cosmos 1953 3.7 14:06:42 10° SW 14:10:34 42° WNW 14:14:29 10° N
SJ-6B 4.2 14:11:19 19° ENE 14:11:19 19° ENE 14:13:56 10° NNE
Cosmos 2084 3.8 14:07:43 10° WSW 14:12:13 67° NW 14:16:17 12° NE
Cosmos 2151 4.4 14:09:39 10° NNE 14:12:48 19° ENE 14:12:56 19° ENE
Unknown 3.6 14:08:51 10° W 14:13:01 89° SSE 14:15:26 24° E
Unknown 3.6 14:09:27 10° W 14:13:37 89° SSE 14:16:02 24° E
Unknown 3.6 14:10:06 10° W 14:14:13 89° S 14:16:36 25° E
Cosmos 2058 3.7 14:10:37 10° N 14:14:28 32° ENE 14:16:29 21° ESE
Cosmos 1844 4.0 14:09:25 10° SW 14:15:09 72° NW 14:20:59 10° NNE
Cosmos 1777 Rocket 4.3 14:10:01 10° NNW 14:15:14 69° WSW 14:20:24 10° SSE
Cosmos 921 Rocket 3.3 14:11:09 10° SSW 14:15:39 71° WNW 14:20:06 10° NNE
Unknown 3.6 14:13:01 10° W 14:17:11 90° ENE 14:19:28 26° E
Unknown 3.6 14:14:30 10° W 14:18:39 90° N 14:20:53 27° E
Cosmos 1908 3.1 14:15:23 10° S 14:19:16 74° E 14:23:10 10° NNE
Unknown 3.6 14:16:16 10° W 14:20:25 89° N 14:22:34 28° E
ADEOS Rocket 4.3 14:15:11 10° NNE 14:21:19 25° E 14:27:08 10° SE
Cosmos 1339 Rocket 4.4 14:17:36 10° S 14:23:39 72° E 14:29:49 10° NNE
Unknown 3.6 14:19:34 10° W 14:23:44 88° NNW 14:25:45 30° E
Unknown 3.6 14:19:49 10° W 14:23:59 88° N 14:25:59 30° E
Cosmos 1242 Rocket 4.5 14:21:19 10° NNW 14:24:41 33° W 14:28:00 10° SSW
Unknown 3.6 14:21:08 10° W 14:25:18 88° N 14:27:15 31° E
BREEZE-M DEB (TANK) 4.0 14:18:23 10° SW 14:26:23 28° SSE 14:28:03 22° SE
CSL-04 Rocket 4.1 14:21:33 10° S 14:27:03 68° WSW 14:32:32 10° NNW
Cosmos 1459 Rocket 4.2 14:21:12 10° N 14:27:11 48° ENE 14:33:13 10° SE
IRS-1A Rocket 4.2 14:22:28 10° SSE 14:27:54 65° ENE 14:33:24 10° NNW
SPOT 3 Rocket 4.2 14:25:56 25° ESE 14:28:03 34° ENE 14:32:42 10° N
Unknown 3.6 14:24:20 10° W 14:28:29 88° NNW 14:30:19 33° E
Cosmos 2058 Rocket 3.5 14:24:12 10° SSW 14:28:31 62° WNW 14:32:52 10° N
USA 116 3.0 14:26:43 10° NNE 14:29:53 80° ESE 14:33:13 10° SSW
HJ-1C 3.4 14:29:29 31° SE 14:30:50 54° ENE 14:34:08 10° N
Cosmos 2263 Rocket 4.4 14:27:08 10° W 14:31:20 21° NNW 14:35:32 10° NNE
Unknown 3.5 14:27:45 10° W 14:31:56 87° N 14:33:37 35° E
Unknown 3.5 14:29:27 10° W 14:33:37 86° N 14:35:14 36° E
Cosmos 1605 Rocket 4.2 14:27:30 10° NNW 14:33:42 72° W 14:39:47 10° S
Unknown 3.6 14:31:06 10° W 14:35:16 86° N 14:36:49 38° E
Unknown 3.5 14:32:46 10° W 14:36:56 86° N 14:38:25 39° E
Cosmos 1726 3.2 14:35:11 10° SSW 14:38:42 45° WNW 14:42:15 10° N
NOAA 11 4.2 14:33:53 10° SSE 14:39:20 85° WSW 14:44:49 10° NNW
ARGOS 3.8 14:38:01 30° E 14:39:31 35° ENE 14:44:25 10° N
COSMO-SKYMED 1 3.2 14:35:48 10° N 14:40:04 57° WNW 14:44:20 10° SSW
Unknown 3.5 14:36:07 10° W 14:40:17 85° N 14:41:38 42° E
Cosmos 292 Rocket 4.0 14:36:09 10° SSW 14:40:53 70° WNW 14:45:39 10° NNE
SJ 16-02 2.1 14:37:10 10° N 14:41:11 33° NE 14:41:26 33° ENE
Unknown 3.5 14:37:50 10° W 14:42:00 85° N 14:43:17 44° E
Cosmos 1833 Rocket 3.2 14:37:30 10° NW 14:43:03 60° WSW 14:48:33 10° SSE
ASTEX 1 4.4 14:38:46 10° N 14:43:32 48° WNW 14:48:18 10° SSW
Unknown 3.5 14:39:26 10° W 14:43:36 85° N 14:44:49 45° E
H-2A R/B 2.6 14:43:21 33° E 14:44:52 40° ENE 14:49:54 10° N
ATLAS 3B R/B 4.1 14:40:07 10° SSE 14:42:12 17° SE 14:42:12 17° SE
Unknown 3.5 14:41:03 10° W 14:45:13 85° N 14:46:22 47° E
Unknown 3.5 14:41:37 10° W 14:45:47 85° N 14:46:54 47° E
Cosmos 1939 Rocket 3.1 14:42:34 10° S 14:46:34 71° WSW 14:50:39 10° NNW
Cosmos 1727 Rocket 3.8 14:41:39 10° S 14:47:48 76° E 14:53:59 10° NNE
Unknown 3.5 14:44:12 10° W 14:48:22 85° N 14:49:24 50° E
Unknown 3.3 14:46:12 10° W 14:49:56 77° SSW 14:50:30 61° SE
Unknown 3.5 14:47:35 10° W 14:51:46 84° N 14:52:39 54° E
Cosmos 1892 3.9 14:49:12 10° N 14:51:29 28° NNE 14:51:29 28° NNE
Cosmos 2173 Rocket 3.9 14:46:36 10° N 14:52:54 70° ENE 14:58:46 11° SSE
Unknown 3.5 14:49:13 10° W 14:53:22 84° N 14:54:11 56° E
CENTAUR R/B 4.1 14:50:12 10° SSE 14:51:26 15° SSE 14:51:26 15° SSE
Cosmos 1802 Rocket 4.0 14:48:35 10° N 14:55:00 62° ENE 14:59:30 20° SSE
Cosmos 1461 4.2 14:51:22 10° NW 14:55:07 36° WSW 14:58:07 15° S
Unknown 3.5 14:51:08 10° W 14:55:18 84° N 14:56:02 59° E
Unknown 3.5 14:52:32 10° W 14:56:42 84° N 14:57:23 61° ENE
SL-27 R/B 4.4 14:54:09 10° N 14:55:21 18° NNE 14:55:21 18° NNE
Unknown 3.5 14:54:12 10° W 14:58:22 84° N 14:58:59 63° ENE
Cosmos 1898 Rocket 3.4 14:53:15 10° NNW 14:58:32 67° ENE 15:00:19 41° SE
Cosmos 1766 Rocket 4.0 14:55:26 10° N 14:58:59 41° NE 14:58:59 41° NE
Unknown 3.5 14:57:34 10° W 15:01:45 84° N 15:02:13 69° ENE
Resurs 01 Rocket 3.1 15:03:39 23° NNE 15:03:39 23° NNE 15:06:02 10° N
Okean 3 Rocket 3.6 14:58:03 10° N 15:02:35 61° ENE 15:03:00 58° ESE
Unknown 3.5 14:59:14 10° W 15:03:24 84° N 15:03:49 71° ENE
Cosmos 2084 Rocket 3.8 15:00:32 10° NW 15:04:56 62° SW 15:06:11 42° SSE
Cosmos 2227 Rocket 4.4 15:02:40 10° NNW 15:05:00 12° N 15:07:20 10° NNE
Unknown 3.4 15:00:54 10° W 15:05:05 84° N 15:05:25 74° ENE
Unknown 4.5 15:02:33 10° W 15:05:36 30° SSW 15:05:46 30° SSW
Cosmos 2123 Rocket 4.5 15:07:13 38° ENE 15:07:13 38° ENE 15:12:21 10° NNE
Unknown 3.4 15:02:33 10° W 15:06:44 84° N 15:07:01 76° ENE
FALCON 9 DEB 4.4 15:03:58 10° W 15:07:09 34° SSW 15:07:13 34° SSW
Cosmos 2082 Rocket 2.8 15:03:37 10° NW 15:09:13 55° WSW 15:13:54 14° S
Lacrosse 5 2.7 15:04:40 10° WNW 15:09:27 44° SW 15:11:30 29° S
Unknown 3.5 15:05:55 10° W 15:10:05 85° N 15:10:14 82° NE
Cosmos 2297 Rocket 4.4 15:07:59 10° NNW 15:10:25 13° N 15:12:38 10° NNE
Unknown 3.5 15:07:11 10° W 15:11:21 85° N 15:11:27 83° NE
ATLAS CENTAUR R/B 3.0 15:08:02 10° NW 15:11:56 25° NNE 15:12:05 25° NNE
Unknown 3.5 15:07:47 10° W 15:11:57 85° N 15:12:01 84° NE
Unknown 3.5 15:08:33 10° W 15:12:09 73° WSW 15:12:09 73° WSW
USA 238 DEB 3.6 15:06:09 10° SSW 15:12:46 64° SE 15:16:10 31° ENE
USA 238 3.6 15:06:16 10° SSW 15:12:53 64° SE 15:16:13 32° ENE
Cosmos 1725 Rocket 4.0 15:07:00 10° N 15:13:12 57° ENE 15:14:47 45° ESE
Unknown 3.5 15:09:27 10° W 15:13:37 85° N 15:13:37 85° N
CZ-4 R/B 4.3 15:10:43 10° SW 15:13:43 19° W 15:16:44 10° NW
Meteor 2-1 Rocket 4.1 15:08:58 10° S 15:14:25 65° E 15:19:58 10° NNE
Cosmos 2233 Rocket 4.4 15:08:53 10° N 15:14:49 41° ENE 15:14:54 41° ENE
Cosmos 1300 3.9 15:12:33 10° SSW 15:17:59 33° N 15:20:14 10° N
Unknown 3.6 15:12:34 10° W 15:16:37 83° NW 15:16:37 83° NW
Cosmos 1000 Rocket 4.4 15:10:41 10° S 15:16:49 69° E 15:23:04 10° NNE
Cosmos 2100 Rocket 4.0 15:10:36 10° NNW 15:16:50 79° W 15:22:58 10° S
Unknown 3.6 15:14:26 10° W 15:18:13 77° WNW 15:18:13 77° WNW
Unknown 3.6 15:14:35 10° W 15:18:27 78° WNW 15:18:27 78° WNW
Unknown 3.6 15:15:53 10° W 15:19:48 78° WNW 15:19:48 78° WNW
Unknown 3.7 15:17:33 10° W 15:21:25 75° WNW 15:21:25 75° WNW
Unknown 3.7 15:19:13 10° W 15:23:00 72° WNW 15:23:00 72° WNW
Cosmos 1812 Rocket 4.2 15:20:41 10° SSW 15:25:02 55° WNW 15:29:27 10° N
Unknown 3.8 15:20:52 10° W 15:24:35 70° WNW 15:24:35 70° WNW
CZ-2C R/B 3.4 15:24:54 54° ENE 15:25:06 55° ENE 15:30:43 10° N
Unknown 4.0 15:22:05 10° W 15:25:16 56° W 15:25:16 56° W
Unknown 4.1 15:27:29 10° W 15:30:56 60° W 15:30:56 60° W
Unknown 4.1 15:29:13 10° W 15:32:35 58° W 15:32:35 58° W
In-Cosmos 22 Rocket 4.5 15:29:20 10° NNW 15:34:39 64° W 15:37:31 28° S
Unknown 4.2 15:30:50 10° W 15:34:08 56° W 15:34:08 56° W
Unknown 4.3 15:32:29 10° W 15:35:44 53° W 15:35:44 53° W
MetOp-A 4.3 15:37:25 56° NE 15:37:25 56° NE 15:42:03 10° N
Ariane Rocket 4.5 15:32:27 10° SSW 15:37:06 35° W 15:41:47 10° NNW
Cosmos 2016 Rocket 4.0 15:30:50 10° N 15:37:08 85° W 15:39:46 38° S
NOSS 3-2 (A) 3.3 15:31:21 10° SW 15:37:13 73° SE 15:38:07 63° ENE
Unknown 4.4 15:34:10 10° W 15:37:20 51° W 15:37:20 51° W
SL-08 R/B 4.3 15:37:45 10° N 15:43:56 88° W 15:45:13 59° S
SJ-6B 4.3 15:46:58 34° NW 15:46:58 34° NW 15:49:20 10° NNW
Cosmos 2151 3.9 15:46:15 10° NNW 15:49:32 46° NW 15:49:32 46° NW
ATLAS 5 CENTAUR R/B 3.5 15:47:52 10° WNW 15:51:57 27° N 15:53:11 24° NNE
Cosmos 2278 Rocket 3.2 15:47:58 10° WSW 15:53:25 45° NW 15:58:53 10° NNE
Cosmos 1937 Rocket 3.7 15:48:31 10° NNW 15:53:31 66° WSW 15:53:31 66° WSW
Cosmos 2061 Rocket 4.5 15:55:11 10° NNW 16:01:19 57° W 16:04:04 32° SSW
NOSS 3-2 (C) 4.2 15:55:40 10° SSW 15:59:03 37° SSW 15:59:03 37° SSW
Terra 4.4 16:09:03 11° NNE 16:09:03 11° NNE 16:09:17 10° N
SPOT 3 Rocket 4.4 16:06:36 43° WSW 16:07:20 46° W 16:12:22 10° NNW
ADEOS Rocket 3.4 15:59:57 10° NNE 16:07:47 89° WNW 16:15:06 10° SSW
Meteor 2-3 Rocket 4.4 16:10:34 10° NNW 16:14:39 48° N 16:14:39 48° N
ARGOS 3.9 16:19:32 47° WSW 16:19:39 47° W 16:24:56 10° NNW
SJ 16-02 3.2 16:15:46 10° NW 16:18:26 29° WNW 16:18:26 29° WNW
H-2A R/B 3.2 16:23:58 40° WSW 16:24:17 41° W 16:29:25 10° NNW
ATLAS 3B R/B 4.4 16:27:58 10° SW 16:29:33 18° SW 16:29:33 18° SW
Resurs 01 Rocket 3.9 16:41:14 21° NW 16:41:14 21° NW 16:42:54 10° NNW
Cosmos 2227 Rocket 4.2 16:46:51 10° NNW 16:49:25 20° N 16:49:25 20° N
ATLAS CENTAUR R/B 4.2 16:47:02 10° NW 16:48:16 18° NW 16:48:16 18° NW
Cosmos 2297 Rocket 4.2 16:52:00 10° NNW 16:54:26 20° N 16:54:26 20° N
USA 238 DEB 4.4 16:57:25 10° WSW 17:03:38 50° NW 17:03:38 50° NW
USA 238 4.4 16:57:31 10° WSW 17:03:42 50° NW 17:03:42 50° NW
CENTAUR R/B 4.5 20:31:28 29° NE 20:31:28 29° NE 20:36:06 10° ENE
SL-16 R/B 4.2 21:43:50 24° NE 21:43:50 24° NE 21:46:01 10° NE
USA 234 4.2 21:59:19 10° ESE 22:03:10 39° E 22:03:10 39° E
Resurs 1-4 Rocket 4.2 22:03:44 10° NNE 22:05:31 22° N 22:05:31 22° N
Cosmos 2322 Rocket 3.8 22:13:02 31° NNE 22:13:02 31° NNE 22:15:51 10° NNE
ATLAS 3B R/B 3.4 22:10:34 48° NE 22:10:34 48° NE 22:16:51 10° ESE
Cosmos 2360 Rocket 3.5 22:21:32 37° NE 22:21:32 37° NE 22:25:01 10° NE
ARIANE 5 R/B 4.3 22:15:33 10° NNE 22:17:54 27° NE 22:17:54 27° NE
CENTAUR R/B 3.4 22:18:43 48° NNW 22:20:44 61° NNE 22:29:10 10° ESE
Cosmos 1980 Rocket 4.0 22:27:47 23° N 22:27:47 23° N 22:30:34 10° NNE
ADEOS II 3.4 22:30:06 10° NNE 22:33:13 36° NNE 22:33:13 36° NNE
ATLAS 2AS CENTAUR R/B 4.3 22:36:49 24° SSE 22:40:11 32° ESE 22:47:03 10° NE
CZ-2D R/B 4.0 22:45:18 10° N 22:47:11 21° N 22:47:11 21° N
Cosmos 2278 Rocket 2.5 22:57:46 63° E 22:57:46 63° E 23:03:00 10° SE
Lacrosse 4 Rocket 4.0 23:02:34 14° N 23:02:34 14° N 23:03:27 10° NNE
NOSS 3-2 (A) 4.0 23:05:39 62° SSW 23:05:39 62° SSW 23:12:56 10° SSE
IDEFIX/ARIANE 42P 3.9 23:00:14 10° NNE 23:05:04 36° E 23:07:49 22° SSE
BREEZE-M R/B 4.3 23:09:12 48° SE 23:09:12 48° SE 23:16:42 10° E
Cosmos 2333 Rocket 2.6 23:08:31 53° SE 23:09:04 55° ESE 23:14:39 10° NE
SL-08 ROCKET BODY 4.3 23:11:08 76° N 23:11:08 76° N 23:16:43 10° N
USA 267 3.6 23:06:06 10° ENE 23:12:31 55° SE 23:13:44 49° S
Cosmos 2251 Rocket 3.7 23:13:13 72° NE 23:13:13 72° NE 23:18:05 10° NNE
COSMOS 2455 2.7 23:18:30 86° W 23:18:37 87° NW 23:24:42 10° NE
Cosmos 44 Rocket 4.4 23:20:00 34° N 23:21:06 39° NE 23:25:31 10° ESE
Cosmos 2098 Rocket 4.3 23:20:23 64° WSW 23:21:10 68° WNW 23:28:21 10° N
Cosmos 2333 4.1 23:21:18 88° ESE 23:21:18 88° ESE 23:27:00 10° NNE
SL-16 R/B 3.3 23:25:42 30° NNW 23:25:42 30° NNW 23:30:00 10° NNE
NOSS 3-2 (C) 3.9 23:27:01 47° WNW 23:29:17 68° SW 23:37:31 10° SSE
Aureole 1 Rocket 3.6 23:29:22 62° S 23:30:10 74° ESE 23:34:48 10° NNE
Cosmos 2219 Rocket 2.2 23:29:22 63° S 23:30:11 75° ESE 23:35:48 10° NNE
Cosmos 2322 3.6 23:30:23 72° WNW 23:30:25 72° NW 23:36:11 10° NNE
Meteor 2-21 Rocket 4.3 23:33:46 64° W 23:34:06 66° WNW 23:40:18 10° N
Meteor 2-14 Rocket 4.4 23:34:24 59° WNW 23:34:24 59° WNW 23:40:25 10° N
ERBS 4.4 23:36:24 25° ESE 23:36:24 25° ESE 23:38:27 10° ENE
H-2A R/B 3.9 23:33:29 10° NNE 23:37:20 36° E 23:40:43 13° SSE
Cosmos 1709 Rocket 3.9 23:39:48 53° SW 23:41:17 72° WNW 23:47:41 10° N
Cosmos 2237 Rocket 3.3 23:37:17 15° S 23:41:39 42° ESE 23:46:59 10° NE
Resurs 1-4 Rocket 4.1 23:44:46 10° NNW 23:46:35 15° NNW 23:46:35 15° NNW
USA 234 3.3 23:42:46 10° SE 23:49:09 54° SW 23:50:31 46° WSW
NOSS 3-4 (A) 4.4 23:46:03 19° S 23:50:07 44° ESE 23:56:09 10° NE
NOSS 3-4 (C) 4.4 23:46:04 18° S 23:50:12 44° ESE 23:56:15 10° NE
NOSS 2-2 (D) 3.3 23:51:26 80° E 23:51:26 80° E 23:55:46 10° NE
Cosmos 2369 Rocket 4.1 23:47:11 10° NNW 23:51:55 27° NE 23:56:37 10° E
NOSS 0 Rocket 4.4 23:48:25 21° S 23:52:35 60° ESE 23:58:41 10° NE
CBERS 1 LM4 rocket 4.3 23:47:31 10° NNE 23:52:41 78° WNW 23:53:45 55° SW
Cosmos 2322 Rocket 3.5 23:54:51 25° NW 23:55:03 25° NW 23:59:38 10° NNE
